Flag Weather past 2 weeks in Hampton, Virginia, U.S.A.

Now
35 °F

Sunny.


Feels Like: 27 °F
Forecast: 33 / 41 °F
Wind: 12 mph from Northwest

Location: Langley Air Force Base

Current Time: Nov 28, 2014 at 8:41:20 AM

Latest Report: Nov 28, 2014 at 7:58 AM


Visibility: 10 mi

Pressure: 30.33 "Hg

Humidity: 62%

Dew point: 24 °F

Location of HamptonLocation

Historic Weather in Hampton — Graph

°F

Hampton temperature yesterday

Maximum temperature yesterday: 45 °F (at 4:04 PM)
Minimum temperature yesterday: 35 °F (at 2:58 AM)
Average temperature yesterday: 40 °F

Past Weeks' High & Low Weather Summary

 TemperatureHumidityPressure
High74 °F (Nov 24, 1:58 PM)100% (Nov 13, 6:58 PM)30.60 "Hg (Nov 13, 6:58 PM)
Low23 °F (Nov 19, 6:58 AM)28% (Nov 22, 1:58 PM)29.56 "Hg (Nov 17, 5:03 PM)
Average45 °F71%30.14 "Hg
* Reported Nov 13 6:58 AM — Nov 28 6:58 AM, Hampton, Weather by CustomWeather, © 2014

Note: Actual official high and low records may vary slightly from our data, if they occured in-between our weather recording intervals... More about our weather records

Advertising

Hampton weather history for previous 24 hours

 ConditionsComfort  
Time TempWeatherWind HumidityBarometerVisibility
6:58 AM
Nov 28
32 °FSunny.12 mph75%30.30 "Hg10 mi
5:58 AM34 °FClear.9 mph69%30.29 "Hg10 mi
4:58 AM34 °FClear.13 mph69%30.27 "Hg10 mi
3:58 AM35 °FClear.12 mph77%30.25 "Hg10 mi
2:58 AM34 °FClear.8 mph81%30.23 "Hg10 mi
1:58 AM36 °FClear.8 mph82%30.22 "Hg10 mi
12:58 AM36 °FClear.6 mph92%30.21 "Hg10 mi
11:58 PM
Nov 27
37 °FPassing clouds.7 mph94%30.22 "Hg10 mi
10:58 PM38 °FOvercast.9 mph88%30.22 "Hg10 mi
9:58 PM37 °FPassing clouds.8 mph99%30.20 "Hg10 mi
8:58 PM37 °FPassing clouds.6 mphN/A30.19 "Hg10 mi
7:58 PM36 °FPassing clouds.3 mph100%30.17 "Hg10 mi
6:58 PM36 °FPassing clouds.2 mph100%30.15 "Hg10 mi
5:58 PM39 °FPassing clouds.5 mph100%30.13 "Hg10 mi
4:58 PM41 °FMostly cloudy.16 mph100%30.10 "Hg10 mi
4:04 PM45 °FCloudy.8 mph100%30.05 "Hg10 mi
3:58 PM44 °FDrizzle. Mostly cloudy.9 mph100%30.07 "Hg10 mi
2:58 PM44 °FDrizzle. More clouds than sun.7 mph100%30.06 "Hg10 mi
2:03 PM43 °FOvercast.5 mph100%30.03 "Hg10 mi
1:58 PM43 °FMostly cloudy.6 mph100%30.05 "Hg10 mi
12:58 PM42 °FLight rain. Fog.3 mph100%30.05 "Hg5 mi
11:58 AM43 °FDrizzle. Mostly cloudy.6 mph100%30.06 "Hg8 mi
11:03 AM43 °FLight rain. Cloudy.7 mph100%30.06 "Hg9 mi
10:58 AM42 °FDrizzle. More clouds than sun.8 mph100%30.08 "Hg10 mi
10:03 AM43 °FLight rain. Mostly cloudy.5 mph100%30.06 "Hg8 mi
9:58 AM42 °FLight rain. Mostly cloudy.6 mph100%30.08 "Hg9 mi
8:58 AM42 °FOvercast.9 mph100%30.09 "Hg10 mi
Weather by CustomWeather, © 2014

See weather overviewHow to use our weather pages